Weather Roundup
Issued by NWS Springfield, MO

Home | Current Version | Previous Version | Text Only | Print | Product List | Glossary On
Versions: 1 2 3 4 5 6 7 8 9 10 11 12 13 14 15 16 17 18 19 20 21 22 23 24 25 26 27 28 29 30 31 32 33 34 35 36 37 38 39 40 41 42 43 44 45 46 47 48 49 50
000
NZUS99 KSGF 200807
HRRSGF

HOURLY WEATHER
NATIONAL WEATHER SERVICE SPRINGFIELD MO
300 AM CDT SUN AUG 20 2017

......SGF CWA......

CITY           SKY/WX    TMP DP  RH WIND       PRES   REMARKS
SPRINGFIELD    CLEAR     76  75  97 S8        29.97F
JOPLIN         MOCLDY    81  74  79 S10       29.95F
WEST PLAINS    CLEAR     74  70  87 SW5       30.01F
ROLLA          CLEAR     70  68  93 S8        29.98F
OSAGE BEACH    PTCLDY    72  70  93 CALM      29.95F
BRANSON        CLEAR     73  73 100 S3        30.00F

......SURROUNDING SGF CWA......

CITY           SKY/WX    TMP DP  RH WIND       PRES   REMARKS
CHANUTE        CLOUDY    77  66  68 SW22G29   29.95R
PARSONS        TSTM      79  74  84 W5        29.96R
COFFEYVILLE    CLOUDY    79  76  90 S8        29.92F
EMPORIA        CLEAR     78  75  90 S12       29.92R
GROVE OK       PTCLDY    81  73  78 S6        29.96F
ROGERS AR      PTCLDY    75  72  90 SE3       30.00F
SILOAM SPRINGS MOCLDY    75  70  83 S3        29.98F
HARRISON AR    CLEAR     74  73  97 SE9       30.01F
NEAR YELLVILLE CLEAR     75  68  78 CALM      29.96F

......KANSAS AND MISSOURI......

CITY           SKY/WX    TMP DP  RH WIND       PRES   REMARKS
KANSAS CTY INT PTCLDY    78  74  87 S8        29.92R
DOWNTOWN KC    PTCLDY    82  75  79 S7        29.91R
COLUMBIA       CLEAR     72  69  90 SE7       29.95F
SEDALIA        CLOUDY    73  72  96 S6        29.95S
ST JOSEPH      CLOUDY    76  74  93 SE6       29.90R
ST LOUIS       PTCLDY    76  68  76 SE3       29.96F
SPIRIT OF STL  CLEAR     69  69 100 CALM      29.95S
KIRKSVILLE     CLOUDY    61  58  90 SW3       29.96R
WICHITA        PTCLDY    77  71  82 S7        29.91F
TOPEKA         CLOUDY    81  77  88 S6        29.90R
OLATHE         CLOUDY    77  74  90 S7        29.94R

......TENNESSEE......

CITY           SKY/WX    TMP DP  RH WIND       PRES   REMARKS
MEMPHIS        PTCLDY    81  75  82 CALM      29.98F
NASHVILLE      PTCLDY    74  70  87 CALM      30.02S

......ARKANSAS.......

CITY           SKY/WX    TMP DP  RH WIND       PRES   REMARKS
FAYETTEVILLE   MOCLDY    72  72 100 S5        29.99F
FT SMITH       PTCLDY    78  76  93 E3        29.95F
LITTLE ROCK    PTCLDY    78  78 100 CALM      29.98S

......OKLAHOMA.......

CITY           SKY/WX    TMP DP  RH WIND       PRES   REMARKS
TULSA          PTCLDY    84  76  76 S9        29.92F HX  93
PONCA CITY     CLEAR     78  70  76 S5        29.93F
MCALESTER      PTCLDY    79  74  84 CALM      29.97F
OKLAHOMA CITY  PTCLDY    73  69  87 S3        29.97S

......IOWA............

CITY           SKY/WX    TMP DP  RH WIND       PRES   REMARKS
DES MOINES     CLOUDY    71  61  70 S3        29.92R
QUAD CITIES    PTCLDY    65  59  81 E6        29.95F

......ILLINOIS........

CITY           SKY/WX    TMP DP  RH WIND       PRES   REMARKS
QUINCY         CLOUDY    67  64  90 SE7       29.94F
CHICAGO        CLEAR     66  56  70 S3        30.00S




USA.gov is the U.S. government's official web portal to all federal, state and local government web resources and services.